Winfield, KS

6:25 AM CST on November 20, 2019 (GMT -0600)
Strother

Weather History for KWLD - October, 2019

Change the Weather History Date:

Sunday, October 20, 2019

  Actual Average Record
Temperature  
Mean Temperature 59 °F -  
Max Temperature 75 °F 67 °F 86 °F (2003)
Min Temperature 45 °F 46 °F 28 °F (2011)
Degree Days  
Heating Degree Days 6    
Growing Degree Days 9 (Base 50)    
Moisture  
Dew Point 48 °F    
Average Humidity 71    
Maximum Humidity 96    
Minimum Humidity 39    
Precipitation  
Precipitation 0.07 in - - ()
Sea Level Pressure  
Sea Level Pressure 29.70 in    
Wind  
Wind Speed 8 mph ()    
Max Wind Speed 29 mph    
Max Gust Speed 44 mph    
Visibility 9.4 miles    
Events Rain , Thunderstorm    
Averages and records for this station are not official NWS values.
T = Trace of Precipitation, MM = Missing Value Source: Averaged Metar Reports

Daily Weather History Graph

Daily Weather History Graph

Search for Another Location

Airport or City:

Astronomy

Oct. 20, 2019 Rise Set
Actual Time 7:40 AM CDT 6:44 PM CDT
Civil Twilight 7:14 AM CDT 7:11 PM CDT
Nautical Twilight 6:43 AM CDT 7:41 PM CDT
Astronomical Twilight 6:13 AM CDT 8:11 PM CDT
Moon No Moon Rise 2:04 PM CDT
Length of Visible Light 11h 57m
Length of Day
11h 04m
Waning Gibbous, 59% of the Moon is Illuminated
Oct 20
Waning Gibbous
Oct 21
Last Quarter
Oct 27
New
Nov 4
First Quarter
Nov 12
Full

Hourly Weather History & Observations

Time (CDT) Temp. Windchill Dew Point Humidity Pressure Visibility Wind Dir Wind Speed Gust Speed Precip Events Conditions
12:54 AM 45.0 °F 43.5 °F 42.1 °F 90% 29.84 in 10.0 mi East 3.5 mph - N/A   Clear
1:54 AM 48.0 °F - 43.0 °F 83% 29.83 in 10.0 mi East 3.5 mph - N/A   Clear
2:54 AM 46.9 °F - 44.1 °F 90% 29.83 in 10.0 mi ESE 3.5 mph - N/A   Clear
3:54 AM 46.9 °F - 45.0 °F 93% 29.80 in 10.0 mi East 5.8 mph - N/A   Clear
4:54 AM 48.9 °F - 46.0 °F 90% 29.78 in 10.0 mi ESE 5.8 mph - N/A   Clear
5:54 AM 48.9 °F - 46.9 °F 93% 29.79 in 10.0 mi ESE 3.5 mph - N/A   Clear
6:54 AM 50.0 °F - 48.9 °F 96% 29.79 in 9.0 mi ESE 4.6 mph - N/A   Clear
7:54 AM 51.1 °F - 50.0 °F 96% 29.79 in 6.0 mi SE 8.1 mph - N/A   Clear
8:54 AM 55.0 °F - 52.0 °F 89% 29.77 in 7.0 mi ESE 9.2 mph - N/A   Clear
9:54 AM 59.0 °F - 54.0 °F 83% 29.78 in 8.0 mi SE 15.0 mph 23.0 mph N/A   Clear
10:54 AM 63.0 °F - 55.0 °F 75% 29.77 in 10.0 mi SSE 18.4 mph 27.6 mph N/A   Clear
11:54 AM 68.0 °F - 54.0 °F 61% 29.74 in 10.0 mi SSE 15.0 mph - N/A   Clear
12:54 PM 70.0 °F - 52.0 °F 53% 29.70 in 10.0 mi SSE 16.1 mph 25.3 mph N/A   Clear
1:54 PM 73.0 °F - 48.9 °F 42% 29.64 in 10.0 mi SSE 19.6 mph - N/A   Clear
2:54 PM 73.0 °F - 46.9 °F 39% 29.60 in 10.0 mi South 19.6 mph 32.2 mph N/A   Clear
3:54 PM 73.0 °F - 50.0 °F 44% 29.58 in 10.0 mi South 12.7 mph 21.9 mph N/A   Clear
4:54 PM 73.0 °F - 51.1 °F 46% 29.57 in 10.0 mi South 11.5 mph - N/A   Clear
5:54 PM 72.0 °F - 51.1 °F 48% 29.57 in 10.0 mi SE 5.8 mph - N/A   Scattered Clouds
7:54 PM 68.0 °F - 53.1 °F 59% 29.56 in 10.0 mi ESE 8.1 mph - N/A   Scattered Clouds
8:54 PM 64.0 °F - 55.9 °F 75% 29.58 in 6.0 mi West 16.1 mph 28.8 mph 0.03 in Rain , Thunderstorm Thunderstorms and Rain
9:14 PM 59.0 °F - 52.0 °F 78% 29.60 in 10.0 mi NW 15.0 mph - 0.04 in Rain Light Rain
9:54 PM 57.9 °F - 37.9 °F 47% 29.61 in 10.0 mi NNW 28.8 mph 43.7 mph 0.04 in Rain Light Rain
10:54 PM 54.0 °F - 42.1 °F 64% 29.59 in 10.0 mi North 11.5 mph - 0.00 in Rain Light Rain
11:54 PM 48.9 °F - 39.9 °F 71% 29.60 in 10.0 mi Variable 5.8 mph - 0.00 in   Clear